Simultaneous Nadir Overpasses (SNOs) Predictions

Prediction of SNOs between GOES-14 and NOAA-20 Satellite Orbit:

Table of predicted SNOs for the next 14.0 days since TLE Epoch: 5/11/2024
Index Date Time (GOES-14) GOES-14 Lat,Lon NOAA-20 Lat,Lon Distance(km) Time Diff (sec)
1 05/11/2024 08:56:38 0.13,-108.68 1.12,-113.05 498.62 80
2 05/12/2024 08:37:52 0.14,-108.68 0.11,-108.51 18.65 80
3 05/14/2024 20:40:59 -0.13,-108.69 -0.28,-109.27 67.08 80
4 05/15/2024 20:24:52 -0.15,-108.69 0.74,-104.74 451.05 80
5 05/17/2024 08:43:57 0.13,-108.70 0.42,-110.00 148.16 80
6 05/18/2024 08:27:51 0.14,-108.71 -0.61,-105.47 369.64 80
7 05/19/2024 20:47:04 -0.12,-108.71 -0.55,-110.77 234.00 80
8 05/20/2024 20:30:57 -0.13,-108.72 0.43,-106.22 284.21 80
9 05/22/2024 08:50:02 0.10,-108.73 0.71,-111.49 314.40 80
10 05/23/2024 08:33:55 0.11,-108.73 -0.28,-106.95 203.10 80
11 05/24/2024 20:53:08 -0.08,-108.72 -0.84,-112.25 402.12 80
